Churchill Falls Airport

Jump to: basic info | weather | frequencies | runways | comments

Related pages: nearby airports | nearby navaids | notams | map

Basic information (top)

Codes: ZUM CZUM
Location: lon 53.561901, lat -64.106400, elev 1,442 ft / 440 m msl
Status: small_airport
Scheduled airline service: yes
Links: Wikipedia Mobile

Weather (top)

Current conditions (rec'd 2014/08/05 15:46Z):

CZUM 051546Z AUTO 24012G22KT 170V250 3SM +TSRARA SCT029 SCT039 BKN050 BKN075 15/11 A2985 RMK LTNG DIST W PRESRR PCPN 2.0MM PAST HR SLP118 DENSITY ALT 1800FT

Airport forecast (rec'd 2014/09/02 20:42Z):

TAF CZUM 021938Z 0220/0308 FCST NOT AVBL DUE NO OBS 
      RMK FCST BASED ON AUTO OBS. NXT FCST BY 030200Z

Frequencies (top)

Verify before use: may be inaccurate or out of date.

ATF: 123.5 MHz (ATF)
AWOS: 122.55 MHz (AWOS)
CNTR: 126.025 MHz (GANDER CNTR)
RCO: 123.25 MHz (HALIFAX RDO)

Runways (top)

13/31: 5,500 x 150 ft (1,676 x 46 m) — paved — lighted

Latest comments (top)

churchill falls airport: no phone number [read]

More... (top)

See also NOTAMs and nearby airports and navaids, or visit the Churchill Falls Airport page at the main OurAirports website..